This demonstration page uses our WeatherBlox Daily Observations layout. Learn more.

Left ArrowRight Arrow

39.29038, -76.61219

Hourly Observations for May 16, 2020

Temp ( °F °C ) Dew Point ( °F °C ) Humidity (%) Winds ( mph kmh ) Pressure ( in mb ) Visibility ( mi km ) Precip ( " mm )
12:54 am 00:54 undefined 76 24.4 57 13.9 52 52 undefined N/A 29.93 1014 N/A 0.00 0.00
1:54 am 01:54 undefined 75 23.9 57 13.9 54 54 undefined N/A 29.92 1013 N/A 0.00 0.00
2:54 am 02:54 undefined 74 23.3 58 14.4 57 57 undefined N/A 29.92 1013 N/A 0.00 0.00
3:54 am 03:54 undefined 73 22.8 58 14.4 59 59 undefined N/A 29.91 1013 N/A 0.00 0.00
4:54 am 04:54 undefined 72 22.2 58 14.4 61 61 undefined N/A 29.93 1013 N/A 0.00 0.00
5:54 am 05:54 undefined 71 21.7 58 14.4 63 63 undefined N/A 29.95 1014 N/A 0.00 0.00
6:54 am 06:54 undefined 71 21.7 59 15 66 66 undefined N/A 29.99 1016 N/A 0.00 0.00
7:54 am 07:54 undefined 71 21.7 59 15 66 66 undefined N/A 30.03 1017 N/A 0.00 0.00
8:54 am 08:54 undefined 73 22.8 59 15 62 62 undefined N/A 30.04 1017 N/A 0.00 0.00
9:54 am 09:54 undefined 75 23.9 58 14.4 55 55 undefined N/A 30.06 1018 N/A 0.00 0.00
10:54 am 10:54 undefined 78 25.6 58 14.4 50 50 undefined N/A 30.06 1018 N/A 0.00 0.00
11:54 am 11:54 undefined 77 25 48 8.9 36 36 undefined N/A 30.08 1019 N/A 0.00 0.00
12:54 pm 12:54 undefined 79 26.1 48 8.9 34 34 undefined N/A 30.08 1019 N/A 0.00 0.00
1:54 pm 13:54 undefined 80 26.7 49 9.4 34 34 undefined N/A 30.07 1018 N/A 0.00 0.00
2:54 pm 14:54 undefined 81 27.2 46 7.8 29 29 undefined N/A 30.06 1018 N/A 0.00 0.00
3:54 pm 15:54 undefined 78 25.6 54 12.2 43 43 undefined N/A 30.06 1018 N/A 0.00 0.00
4:54 pm 16:54 undefined 77 25 52 11.1 42 42 undefined N/A 30.07 1018 N/A 0.00 0.00
5:54 pm 17:54 undefined 76 24.4 50 10 40 40 undefined N/A 30.08 1019 N/A 0.00 0.00
6:54 pm 18:54 undefined 75 23.9 50 10 41 41 undefined N/A 30.09 1019 N/A 0.00 0.00
7:54 pm 19:54 undefined 74 23.3 50 10 43 43 undefined N/A 30.11 1020 N/A 0.00 0.00
8:54 pm 20:54 undefined 73 22.8 50 10 44 44 undefined N/A 30.12 1020 N/A 0.00 0.00
9:54 pm 21:54 undefined 73 22.8 51 10.6 46 46 undefined N/A 30.13 1020 N/A 0.00 0.00
10:54 pm 22:54 undefined 67 19.4 56 13.3 68 68 undefined N/A 30.16 1021 N/A 0.00 0.00
11:54 pm 23:54 undefined 65 18.3 53 11.7 66 66 undefined N/A 30.16 1022 N/A 0.00 0.00

Powered by AerisWeather